Overview Statistics Trail Chart Weather Telemetry Raw packets
 

This is the latest recevied weather packets stored in our database for station/object KU4DD. If no packets are shown the sender has not sent any weather packets the latest 10 day(s).

<< 1 2 3 4 5 6 7 >>
Time Temp. Humidity Pressure Rain* Wind** Luminosity Snow
1788530688 28.89° C 81% 1016.6 hPa 0 mm - 552 W/m² -
1788527003 27.22° C 88% 1016.6 hPa 0 mm - 359 W/m² -
1788525770 26.67° C 90% 1016.3 hPa 0 mm - 288 W/m² -
1788521475 24.44° C 97% 1016.3 hPa 0 mm - 72 W/m² -
1788520232 23.89° C 97% 1016.6 hPa 0 mm - 18 W/m² -
1788518062 23.89° C 96% 1016.3 hPa 0 mm - 0 W/m² -
1788517741 23.89° C 96% 1016.3 hPa 0 mm - 0 W/m² -
1788511590 24.44° C 95% 1015.9 hPa 0 mm - 0 W/m² -
1788507270 24.44° C 93% 1015.6 hPa 0 mm - 0 W/m² -
1788503251 25.56° C 91% 1016.3 hPa 0 mm - 0 W/m² -
1788502013 25.56° C 90% 1016.6 hPa 0 mm - 0 W/m² -
1788501689 25.56° C 90% 1016.6 hPa 0 mm - 0 W/m² -
1788499522 26.11° C 88% 1016.9 hPa 0 mm - 0 W/m² -
1788498306 26.11° C 87% 1016.9 hPa 0 mm - 0 W/m² -
1788497059 26.67° C 86% 1016.9 hPa 0 mm - 0 W/m² -
1788493071 27.22° C 82% 1016.9 hPa 0 mm - 0 W/m² -
1788492725 27.22° C 81% 1016.9 hPa 0 mm - 0 W/m² -
1788491480 27.78° C 79% 1016.9 hPa 0 mm - 0 W/m² -
1788489293 28.33° C 78% 1016.9 hPa 0 mm - 0 W/m² -
1788488670 28.33° C 77% 1017.3 hPa 0 mm - 0 W/m² -
1788488347 28.89° C 77% 1017.3 hPa 0 mm - 0 W/m² -
1788486798 28.89° C 78% 1016.9 hPa 0 mm - 0 W/m² -
1788485853 29.44° C 78% 1016.9 hPa 0 mm - 0 W/m² -
1788484303 30° C 75% 1016.3 hPa 0 mm - 0 W/m² -
1788483671 30° C 75% 1015.9 hPa 0 mm - 0 W/m² -

* Rain latest hour (hover to see other rain measurements)
** Current wind speed in m/s (hover to see current wind gust speed)